| time (UTC) | temp F | wind direction | speed MPH | gust MPH | rain 1hr in | rain 24hr in | rain mn in | humidity % | barometer mb |
| 20260510200204 | 64 | 190 | 2.0 | 7.0 | 0.00 | 0.00 | 0.00 | 66 | 1015.7 |
| 20260510195154 | 63 | 193 | 3.0 | 11.0 | 0.00 | 0.00 | 0.00 | 65 | 1015.8 |
| 20260510194211 | 63 | 198 | 4.0 | 11.0 | 0.00 | 0.00 | 0.00 | 68 | 1015.9 |
| 20260510192036 | 62 | 196 | 4.0 | 9.0 | 0.00 | 0.00 | 0.00 | 71 | 1015.6 |
| 20260510191006 | 62 | 182 | 2.0 | 9.0 | 0.00 | 0.00 | 0.00 | 68 | 1015.8 |
| 20260510185937 | 62 | 178 | 4.0 | 9.0 | 0.00 | 0.00 | 0.00 | 66 | 1015.7 |
| 20260510184913 | 61 | 232 | 2.0 | 6.0 | 0.00 | 0.00 | 0.00 | 68 | 1015.8 |
| 20260510182712 | 59 | 260 | 4.0 | 8.0 | 0.00 | 0.00 | 0.00 | 72 | 1015.6 |
| 20260510175412 | 58 | 256 | 7.0 | 12.0 | 0.00 | 0.00 | 0.00 | 77 | 1015.4 |
| 20260510174349 | 57 | 232 | 8.0 | 12.0 | 0.00 | 0.00 | 0.00 | 74 | 1015.5 |
| 20260510173359 | 57 | 236 | 7.0 | 11.0 | 0.00 | 0.00 | 0.00 | 78 | 1015.5 |
| 20260510172325 | 58 | 219 | 2.0 | 6.0 | 0.00 | 0.00 | 0.00 | 77 | 1015.4 |
| 20260510171313 | 57 | 242 | 2.0 | 6.0 | 0.00 | 0.00 | 0.00 | 78 | 1015.2 |
| 20260510170326 | 57 | 193 | 1.0 | 6.0 | 0.00 | 0.00 | 0.00 | 79 | 1015.1 |
| 20260510163135 | 55 | 232 | 3.0 | 7.0 | 0.00 | 0.00 | 0.00 | 82 | 1015.2 |
| 20260510162144 | 54 | 269 | 4.0 | 7.0 | 0.00 | 0.00 | 0.00 | 84 | 1015.2 |
| 20260510155926 | 54 | 306 | 2.0 | 9.0 | 0.00 | 0.00 | 0.00 | 85 | 1014.6 |
| 20260510154918 | 54 | 219 | 5.0 | 9.0 | 0.00 | 0.00 | 0.00 | 83 | 1014.7 |
| 20260510153902 | 54 | 275 | 3.0 | 8.0 | 0.00 | 0.00 | 0.00 | 84 | 1014.4 |
| 20260510152906 | 54 | 252 | 4.0 | 9.0 | 0.00 | 0.00 | 0.00 | 85 | 1014.5 |
| 20260510151907 | 53 | 252 | 4.0 | 9.0 | 0.00 | 0.00 | 0.00 | 88 | 1014.5 |
| 20260510150923 | 53 | 183 | 4.0 | 7.0 | 0.00 | 0.00 | 0.00 | 89 | 1014.6 |
| 20260510145907 | 52 | 208 | 3.0 | 8.0 | 0.00 | 0.00 | 0.00 | 89 | 1014.6 |
| 20260510144850 | 52 | 178 | 2.0 | 8.0 | 0.00 | 0.00 | 0.00 | 90 | 1014.1 |
| 20260510143826 | 52 | 229 | 4.0 | 10.0 | 0.00 | 0.00 | 0.00 | 90 | 1013.9 |
| 20260510141643 | 51 | 193 | 3.0 | 6.0 | 0.00 | 0.00 | 0.00 | 92 | 1014.6 |
| 20260510140649 | 51 | 178 | 1.0 | 5.0 | 0.00 | 0.00 | 0.00 | 92 | 1014.5 |
| 20260510135704 | 50 | 146 | 0.0 | 3.0 | 0.00 | 0.00 | 0.00 | 93 | 1014.2 |
| 20260510134647 | 50 | 118 | 0.0 | 5.0 | 0.00 | 0.00 | 0.00 | 93 | 1014.2 |
| 20260510132531 | 50 | 130 | 1.0 | 5.0 | 0.00 | 0.00 | 0.00 | 94 | 1014.1 |
| 20260510131509 | 49 | 196 | 0.0 | 2.0 | 0.00 | 0.00 | 0.00 | 95 | 1014.3 |
| 20260510125334 | 48 | 185 | 2.0 | 3.0 | 0.00 | 0.00 | 0.00 | 94 | 1014.3 |
| 20260510124313 | 49 | 200 | 0.0 | 2.0 | 0.00 | 0.00 | 0.00 | 94 | 1014.1 |
| 20260510123327 | 49 | 73 | 0.0 | 1.0 | 0.00 | 0.00 | 0.00 | 94 | 1014.0 |
| 20260510122342 | 49 | 132 | 0.0 | 3.0 | 0.00 | 0.00 | 0.00 | 94 | 1013.8 |
| 20260510121402 | 50 | 144 | 0.0 | 3.0 | 0.00 | 0.00 | 0.00 | 95 | 1013.8 |
| 20260510120414 | 49 | 148 | 0.0 | 0.0 | 0.00 | 0.00 | 0.00 | 94 | 1014.0 |
| 20260510115411 | 49 | 170 | 0.0 | 0.0 | 0.00 | 0.00 | 0.00 | 94 | 1014.1 |
| 20260510112141 | 49 | 165 | 0.0 | 0.0 | 0.00 | 0.00 | 0.00 | 93 | 1014.0 |
| 20260510110059 | 50 | 123 | 0.0 | 0.0 | 0.00 | 0.00 | 0.00 | 93 | 1013.9 |
| 20260510105045 | 50 | 141 | 0.0 | 4.0 | 0.00 | 0.00 | 0.00 | 93 | 1014.0 |
| 20260510104104 | 50 | 163 | 1.0 | 4.0 | 0.00 | 0.00 | 0.00 | 93 | 1013.9 |
| 20260510103033 | 50 | 165 | 0.0 | 3.0 | 0.00 | 0.00 | 0.00 | 92 | 1013.9 |
| 20260510102049 | 50 | 164 | 0.0 | 0.0 | 0.00 | 0.00 | 0.00 | 92 | 1013.8 |
| 20260510101014 | 50 | 197 | 0.0 | 4.0 | 0.00 | 0.00 | 0.00 | 92 | 1013.9 |
| 20260510100013 | 50 | 168 | 0.0 | 4.0 | 0.00 | 0.00 | 0.00 | 92 | 1013.8 |
| 20260510095038 | 50 | 152 | 0.0 | 0.0 | 0.00 | 0.00 | 0.00 | 91 | 1013.9 |
| 20260510094054 | 50 | 140 | 0.0 | 0.0 | 0.00 | 0.00 | 0.00 | 91 | 1013.8 |
| 20260510091901 | 50 | 119 | 0.0 | 0.0 | 0.00 | 0.00 | 0.00 | 90 | 1014.0 |
| 20260510090900 | 50 | 119 | 0.0 | 0.0 | 0.00 | 0.00 | 0.00 | 90 | 1013.8 |
| 20260510084726 | 51 | 119 | 0.0 | 0.0 | 0.00 | 0.00 | 0.00 | 89 | 1013.8 |
| 20260510083730 | 51 | 130 | 0.0 | 3.0 | 0.00 | 0.00 | 0.00 | 88 | 1013.8 |
| 20260510082703 | 51 | 147 | 1.0 | 3.0 | 0.00 | 0.00 | 0.00 | 89 | 1013.7 |
| 20260510080602 | 51 | 169 | 0.0 | 4.0 | 0.00 | 0.00 | 0.00 | 87 | 1013.7 |
| 20260510073325 | 52 | 151 | 0.0 | 3.0 | 0.00 | 0.00 | 0.00 | 83 | 1013.5 |
| 20260510072257 | 52 | 123 | 0.0 | 1.0 | 0.00 | 0.00 | 0.00 | 83 | 1013.5 |
| 20260510071225 | 51 | 119 | 0.0 | 1.0 | 0.00 | 0.00 | 0.00 | 84 | 1013.7 |
| 20260510070208 | 52 | 147 | 1.0 | 4.0 | 0.00 | 0.00 | 0.00 | 84 | 1013.8 |
| 20260510065215 | 51 | 177 | 1.0 | 4.0 | 0.00 | 0.00 | 0.00 | 84 | 1013.8 |
| 20260510064241 | 53 | 169 | 0.0 | 2.0 | 0.00 | 0.00 | 0.00 | 79 | 1013.7 |
| 20260510063231 | 53 | 148 | 1.0 | 2.0 | 0.00 | 0.00 | 0.00 | 78 | 1013.7 |
| 20260510062230 | 54 | 134 | 1.0 | 2.0 | 0.00 | 0.00 | 0.00 | 77 | 1013.7 |
| 20260510061209 | 54 | 136 | 0.0 | 1.0 | 0.00 | 0.00 | 0.00 | 77 | 1013.6 |
| 20260510060140 | 54 | 172 | 0.0 | 3.0 | 0.00 | 0.00 | 0.00 | 78 | 1013.7 |
| 20260510053937 | 54 | 166 | 0.0 | 4.0 | 0.00 | 0.00 | 0.00 | 77 | 1013.8 |
| 20260510052957 | 55 | 167 | 1.0 | 4.0 | 0.00 | 0.00 | 0.00 | 76 | 1013.8 |
| 20260510052007 | 55 | 164 | 0.0 | 3.0 | 0.00 | 0.00 | 0.00 | 76 | 1013.9 |
| 20260510050956 | 55 | 134 | 0.0 | 1.0 | 0.00 | 0.00 | 0.00 | 75 | 1013.9 |
| 20260510045924 | 56 | 138 | 0.0 | 2.0 | 0.00 | 0.00 | 0.00 | 74 | 1013.9 |
| 20260510044921 | 56 | 192 | 1.0 | 3.0 | 0.00 | 0.00 | 0.00 | 74 | 1014.1 |
| 20260510043931 | 56 | 175 | 0.0 | 3.0 | 0.00 | 0.00 | 0.00 | 74 | 1014.1 |
| 20260510042942 | 56 | 246 | 0.0 | 1.0 | 0.00 | 0.00 | 0.00 | 72 | 1014.1 |
| 20260510041908 | 57 | 250 | 0.0 | 1.0 | 0.00 | 0.00 | 0.00 | 72 | 1014.0 |
| 20260510040919 | 57 | 188 | 0.0 | 0.0 | 0.00 | 0.00 | 0.00 | 72 | 1014.0 |
| 20260510035922 | 58 | 193 | 0.0 | 0.0 | 0.00 | 0.00 | 0.00 | 72 | 1013.8 |
| 20260510034939 | 58 | 176 | 1.0 | 2.0 | 0.00 | 0.00 | 0.00 | 70 | 1013.7 |
| 20260510033906 | 58 | 160 | 0.0 | 2.0 | 0.00 | 0.00 | 0.00 | 70 | 1013.7 |
| 20260510032859 | 58 | 157 | 0.0 | 3.0 | 0.00 | 0.00 | 0.00 | 70 | 1013.7 |
| 20260510031848 | 59 | 177 | 0.0 | 3.0 | 0.00 | 0.00 | 0.00 | 69 | 1013.8 |
| 20260510030904 | 59 | 206 | 1.0 | 4.0 | 0.00 | 0.00 | 0.00 | 69 | 1013.7 |
| 20260510025912 | 59 | 250 | 2.0 | 4.0 | 0.00 | 0.00 | 0.00 | 69 | 1013.9 |
| 20260510023815 | 61 | 279 | 1.0 | 5.0 | 0.00 | 0.00 | 0.00 | 67 | 1013.9 |
| 20260510022837 | 62 | 278 | 2.0 | 5.0 | 0.00 | 0.00 | 0.00 | 65 | 1014.0 |
| 20260510021820 | 63 | 232 | 2.0 | 4.0 | 0.00 | 0.00 | 0.00 | 66 | 1014.1 |
| 20260510020801 | 63 | 190 | 3.0 | 5.0 | 0.00 | 0.00 | 0.00 | 65 | 1014.2 |
| 20260510015742 | 64 | 190 | 4.0 | 6.0 | 0.00 | 0.00 | 0.00 | 62 | 1014.3 |
| 20260510014724 | 64 | 194 | 4.0 | 6.0 | 0.00 | 0.00 | 0.00 | 64 | 1014.4 |
| 20260510013717 | 64 | 200 | 2.0 | 5.0 | 0.00 | 0.00 | 0.00 | 63 | 1014.3 |
| 20260510012742 | 64 | 175 | 3.0 | 5.0 | 0.00 | 0.00 | 0.00 | 64 | 1014.5 |
| 20260510011726 | 64 | 220 | 3.0 | 5.0 | 0.00 | 0.00 | 0.00 | 63 | 1014.7 |
| 20260510010735 | 64 | 189 | 3.0 | 6.0 | 0.00 | 0.00 | 0.00 | 65 | 1015.0 |
| 20260510005731 | 65 | 190 | 0.0 | 6.0 | 0.00 | 0.00 | 0.00 | 58 | 1015.2 |
| 20260510003638 | 66 | 37 | 1.0 | 6.0 | 0.00 | 0.00 | 0.00 | 55 | 1015.3 |
| 20260510001437 | 66 | 336 | 2.0 | 4.0 | 0.00 | 0.00 | 0.00 | 55 | 1015.5 |
| 20260510000449 | 66 | 34 | 1.0 | 8.0 | 0.00 | 0.00 | 0.00 | 57 | 1015.7 |
| 20260509235511 | 65 | 47 | 3.0 | 8.0 | 0.00 | 0.00 | 0.00 | 58 | 1015.7 |
| 20260509234444 | 65 | 39 | 4.0 | 7.0 | 0.00 | 0.00 | 0.00 | 58 | 1015.8 |
| 20260509233432 | 65 | 46 | 2.0 | 8.0 | 0.00 | 0.00 | 0.00 | 59 | 1016.0 |
| 20260509231230 | 66 | 34 | 1.0 | 8.0 | 0.00 | 0.00 | 0.00 | 60 | 1016.3 |
| 20260509225110 | 66 | 42 | 2.0 | 4.0 | 0.00 | 0.00 | 0.00 | 61 | 1016.7 |
| 20260509224117 | 67 | 296 | 1.0 | 3.0 | 0.00 | 0.00 | 0.00 | 63 | 1016.8 |
| 20260509223111 | 65 | 209 | 0.0 | 6.0 | 0.00 | 0.00 | 0.00 | 63 | 1017.1 |
| 20260509220854 | 65 | 340 | 2.0 | 7.0 | 0.00 | 0.00 | 0.00 | 66 | 1017.5 |
| 20260509215853 | 65 | 290 | 2.0 | 11.0 | 0.00 | 0.00 | 0.00 | 64 | 1017.6 |
| 20260509214833 | 64 | 228 | 4.0 | 11.0 | 0.00 | 0.00 | 0.00 | 68 | 1017.7 |
| 20260509213809 | 63 | 280 | 4.0 | 9.0 | 0.00 | 0.00 | 0.00 | 68 | 1017.7 |
| 20260509212805 | 63 | 257 | 2.0 | 8.0 | 0.00 | 0.00 | 0.00 | 67 | 1017.8 |
| 20260509211828 | 63 | 86 | 2.0 | 6.0 | 0.00 | 0.00 | 0.00 | 68 | 1017.9 |
| 20260509210834 | 63 | 273 | 3.0 | 9.0 | 0.00 | 0.00 | 0.00 | 71 | 1018.0 |
| 20260509205822 | 61 | 282 | 6.0 | 11.0 | 0.00 | 0.00 | 0.00 | 73 | 1018.3 |
| 20260509203634 | 61 | 265 | 6.0 | 10.0 | 0.00 | 0.00 | 0.00 | 73 | 1018.4 |
| 20260509202657 | 60 | 290 | 5.0 | 9.0 | 0.00 | 0.00 | 0.00 | 74 | 1018.3 |
| 20260509201641 | 61 | 294 | 5.0 | 9.0 | 0.00 | 0.00 | 0.00 | 74 | 1018.2 |
| 20260509200643 | 61 | 277 | 5.0 | 8.0 | 0.00 | 0.00 | 0.00 | 73 | 1018.3 |